This demonstration page uses our WeatherBlox Daily Observations layout. Learn more.

Left ArrowRight Arrow

39.12711, -84.51439

Hourly Observations for January 1, 2018

Temp ( °F °C ) Dew Point ( °F °C ) Humidity (%) Winds ( mph kmh ) Pressure ( in mb ) Visibility ( mi km ) Precip ( " mm )
12:53 am 00:53 Clear 7 -13.9 2 -16.7 80 80 VRB 5 7 30.63 1037 10 16 N/A
1:53 am 01:53 Clear 6 -14.4 1 -17.2 79 79 NW 7 11 30.64 1038 10 16 N/A
2:53 am 02:53 Clear 6 -14.4 N/A 76 76 VRB 6 9 30.65 1038 10 16 N/A
3:53 am 03:53 Clear 4 -15.6 -2 -18.9 76 76 VRB 3 6 30.66 1038 10 16 N/A
4:26 am 04:26 Mostly Cloudy 4 -15.6 -2 -18.9 76 76 WNW 6 9 30.68 1039 10 16 N/A
4:53 am 04:53 Mostly Cloudy 4 -15.6 -2 -18.9 76 76 WNW 5 7 30.66 1038 10 16 N/A
5:03 am 05:03 Mostly Cloudy 5 -15 -2 -18.9 72 72 NNW 5 7 30.68 1039 10 16 N/A
5:26 am 05:26 Mostly Cloudy 4 -15.6 -2 -18.9 76 76 WNW 6 9 30.71 1040 10 16 N/A
5:53 am 05:53 Cloudy 5 -15 -2 -18.9 72 72 WNW 5 7 30.68 1039 10 16 N/A
6:38 am 06:38 Partly Cloudy 4 -15.6 -3 -19.4 73 73 WNW 7 11 30.71 1040 10 16 N/A
6:53 am 06:53 Clear 4 -15.6 -3 -19.4 73 73 NW 3 6 30.69 1039 10 16 N/A
7:53 am 07:53 Clear 3 -16.1 -3 -19.4 76 76 NW 6 9 30.71 1040 10 16 N/A
8:53 am 08:53 Sunny 5 -15 -3 -19.4 69 69 NW 6 9 30.72 1040 10 16 N/A
9:53 am 09:53 Sunny 6 -14.4 -1 -18.3 73 73 W 8 13 30.73 1041 10 16 N/A
10:53 am 10:53 Sunny 9 -12.8 -3 -19.4 58 58 W 8 13 30.75 1041 10 16 N/A
11:53 am 11:53 Sunny 11 -11.7 -3 -19.4 53 53 W 8 13 30.75 1041 10 16 N/A
12:53 pm 12:53 Sunny 12 -11.1 -4 -20 48 48 W 10 17 30.73 1041 10 16 N/A
1:53 pm 13:53 Sunny 13 -10.6 -5 -20.6 44 44 W 10 17 30.71 1040 10 16 N/A
2:53 pm 14:53 Sunny 13 -10.6 -6 -21.1 42 42 W 9 15 30.71 1040 10 16 N/A
3:53 pm 15:53 Sunny 13 -10.6 -6 -21.1 42 42 W 12 19 30.71 1040 10 16 N/A
4:53 pm 16:53 Sunny 12 -11.1 -5 -20.6 46 46 WNW 9 15 30.73 1041 10 16 N/A
5:53 pm 17:53 Clear 9 -12.8 -6 -21.1 50 50 WNW 6 9 30.75 1041 10 16 N/A
6:53 pm 18:53 Clear 6 -14.4 -6 -21.1 57 57 NW 6 9 30.77 1042 10 16 N/A
7:53 pm 19:53 Clear 4 -15.6 -7 -21.7 60 60 VRB 7 11 30.78 1042 10 16 N/A
8:53 pm 20:53 Clear 3 -16.1 -7 -21.7 62 62 VRB 6 9 30.78 1042 10 16 N/A
9:53 pm 21:53 Clear 3 -16.1 -8 -22.2 60 60 NW 5 7 30.78 1042 10 16 N/A
10:53 pm 22:53 Clear 2 -16.7 -9 -22.8 59 59 NNW 3 6 30.80 1043 10 16 N/A
11:53 pm 23:53 Clear 1 -17.2 -10 -23.3 59 59 WNW 6 9 30.80 1043 10 16 N/A

Powered by AerisWeather